TimeCDT,TemperatureF,Dew PointF,Humidity,Sea Level PressureIn,VisibilityMPH,Wind Direction,Wind SpeedMPH,Gust SpeedMPH,PrecipitationIn,Events,Conditions,WindDirDegrees,DateUTC
12:52 AM,50.0,30.0,46,29.70,10.0,South,10.4,-,N/A,,Clear,180,2014-03-11 05:52:00
1:52 AM,50.0,30.9,48,29.68,10.0,South,11.5,-,N/A,,Clear,180,2014-03-11 06:52:00
2:52 AM,45.0,32.0,60,29.66,10.0,South,9.2,-,N/A,,Clear,170,2014-03-11 07:52:00
3:52 AM,50.0,37.0,61,29.62,10.0,South,11.5,-,N/A,,Clear,170,2014-03-11 08:52:00
4:52 AM,51.1,37.9,61,29.59,10.0,South,15.0,-,N/A,,Clear,180,2014-03-11 09:52:00
5:52 AM,50.0,39.9,68,29.58,10.0,South,13.8,-,N/A,,Clear,170,2014-03-11 10:52:00
6:52 AM,48.9,42.1,77,29.57,10.0,South,13.8,-,N/A,,Clear,170,2014-03-11 11:52:00
7:52 AM,50.0,44.1,80,29.56,10.0,South,15.0,-,N/A,,Clear,170,2014-03-11 12:52:00
8:52 AM,55.0,46.9,74,29.55,10.0,South,16.1,-,N/A,,Clear,170,2014-03-11 13:52:00
9:52 AM,61.0,48.9,64,29.54,10.0,South,18.4,-,N/A,,Clear,180,2014-03-11 14:52:00
10:52 AM,64.9,51.1,61,29.52,10.0,South,20.7,-,N/A,,Clear,180,2014-03-11 15:52:00
11:52 AM,69.1,51.1,53,29.50,10.0,South,16.1,-,N/A,,Clear,190,2014-03-11 16:52:00
12:52 PM,73.0,51.1,46,29.47,10.0,South,19.6,26.5,N/A,,Clear,170,2014-03-11 17:52:00
1:52 PM,75.9,51.1,42,29.43,10.0,South,19.6,25.3,N/A,,Clear,180,2014-03-11 18:52:00
2:52 PM,75.9,50.0,40,29.42,10.0,South,18.4,26.5,N/A,,Clear,180,2014-03-11 19:52:00
3:52 PM,77.0,51.1,40,29.41,10.0,South,13.8,-,N/A,,Partly Cloudy,180,2014-03-11 20:52:00
4:52 PM,79.0,46.9,32,29.40,10.0,SSW,16.1,-,N/A,,Overcast,210,2014-03-11 21:52:00
5:52 PM,77.0,46.0,33,29.39,10.0,SSW,15.0,-,N/A,,Mostly Cloudy,210,2014-03-11 22:52:00
6:19 PM,75.9,41.0,29,29.43,10.0,West,21.9,28.8,N/A,,Mostly Cloudy,270,2014-03-11 23:19:00
6:33 PM,62.1,41.0,46,29.48,10.0,NW,28.8,40.3,N/A,,Scattered Clouds,320,2014-03-11 23:33:00
6:52 PM,57.0,39.9,53,29.52,10.0,NNW,32.2,43.7,N/A,,Partly Cloudy,330,2014-03-11 23:52:00
7:29 PM,53.1,37.9,57,29.58,10.0,NNW,23.0,36.8,N/A,,Mostly Cloudy,340,2014-03-12 00:29:00
7:52 PM,51.1,37.0,59,29.60,10.0,North,24.2,40.3,N/A,,Partly Cloudy,350,2014-03-12 00:52:00
8:52 PM,48.0,36.0,63,29.68,10.0,NNW,26.5,39.1,N/A,,Clear,340,2014-03-12 01:52:00
9:35 PM,46.0,36.0,68,29.74,10.0,North,28.8,46.0,N/A,,Mostly Cloudy,350,2014-03-12 02:35:00
9:52 PM,45.0,36.0,71,29.77,10.0,North,23.0,41.4,N/A,,Overcast,350,2014-03-12 02:52:00
10:52 PM,43.0,34.0,71,29.83,10.0,North,27.6,47.2,N/A,,Overcast,350,2014-03-12 03:52:00
11:52 PM,42.1,32.0,67,29.90,10.0,North,27.6,48.3,N/A,,Overcast,360,2014-03-12 04:52:00